Theta_e
314 313 313 313 315 316 317 319 319 323 325 325 326 324 321 323 326 322 323 321 322 336 342 344 342 342 346 347 350 349 348 352 353 344 343 350 348 348 349 348 346 343 340 338 338 338 338 337 337 337 337 336 335 335 333 329 323 315 312 311 312 314 317 319 320 322 323 328 332 333 334 335 335 336 336 337 336 335 335 335 336 337 337 337 337 337 336 336 335 334 334 334 334 331 327 327 328
313 313 313 313 317 318 319 322 324 326 324 322 324 325 323 324 326 321 323 320 324 343 346 344 344 345 345 345 345 347 351 350 350 349 350 350 349 350 349 349 346 343 339 336 336 336 337 337 337 337 336 336 335 335 333 331 324 315 311 311 312 313 317 319 321 323 324 328 332 333 334 334 335 336 337 337 337 338 338 338 338 338 337 337 337 337 336 336 335 334 333 333 331 326 326 328 328
312 313 312 313 316 318 321 322 327 326 322 321 321 324 323 321 324 321 325 329 334 346 345 342 344 345 346 350 351 350 352 350 350 351 350 350 350 350 350 349 346 343 338 334 335 335 335 336 336 336 335 335 335 335 333 331 325 315 311 311 312 312 316 320 321 322 324 328 331 332 333 335 336 336 337 337 338 338 338 338 338 338 337 337 337 337 336 336 336 334 333 332 328 324 326 329 330
312 312 311 313 316 319 323 325 330 329 323 323 319 323 325 322 324 319 326 340 344 347 344 343 346 345 348 353 353 350 350 350 350 350 351 351 351 350 350 349 345 342 338 334 334 334 334 334 334 334 334 334 334 334 332 331 325 315 311 311 312 312 315 319 321 322 324 327 330 332 333 335 336 336 337 337 338 338 338 338 337 337 337 337 337 337 336 336 335 332 330 326 323 324 327 329 330
311 312 312 316 319 320 323 324 328 326 320 323 322 323 326 323 323 318 321 332 339 346 344 343 347 346 348 350 349 349 350 350 350 350 351 351 351 350 348 346 343 340 337 334 333 333 333 333 333 332 333 334 334 333 331 330 324 315 311 311 311 311 314 318 320 321 324 327 329 331 333 335 336 336 336 337 337 338 338 337 337 336 336 335 336 335 336 335 328 320 318 314 315 323 328 329 330
311 312 317 318 318 318 320 320 322 322 318 323 324 325 326 321 320 317 317 328 334 341 342 342 345 347 350 350 349 350 349 349 350 351 351 350 349 348 347 344 342 340 337 334 332 332 332 332 331 331 332 333 332 330 330 329 324 316 311 311 311 311 313 317 319 321 324 327 330 332 334 335 335 336 336 337 336 337 337 336 334 333 332 332 332 332 331 326 315 309 309 308 312 323 328 329 330
311 313 317 318 318 316 321 323 321 322 320 321 322 322 323 319 318 316 318 332 341 340 342 345 346 351 351 350 350 350 348 348 350 351 350 349 348 346 345 344 343 342 338 334 333 332 331 331 331 331 331 331 330 328 328 328 324 317 312 310 311 311 312 315 318 320 323 328 331 333 334 335 335 335 336 336 336 335 334 332 331 330 329 328 326 324 321 315 308 308 308 307 315 324 328 329 330
311 315 316 318 320 317 320 321 319 320 320 318 318 319 320 318 318 318 319 330 342 341 344 347 346 353 353 350 350 350 348 348 349 350 349 348 347 346 346 345 345 342 337 334 332 332 332 331 330 330 329 329 327 326 326 327 324 317 312 310 311 311 312 314 317 319 321 326 330 332 333 334 335 335 335 335 334 333 332 330 330 330 328 323 319 316 313 309 308 308 307 310 319 326 328 330 330
312 317 316 318 320 317 319 319 317 318 317 316 316 316 317 317 317 318 318 322 334 340 344 346 344 352 352 349 349 349 349 349 348 349 349 349 348 347 346 346 346 342 336 334 333 332 332 331 329 328 327 326 323 323 325 326 324 317 311 310 310 312 312 313 316 317 317 322 327 329 331 333 334 334 334 334 332 331 330 329 329 328 325 319 314 311 309 308 308 308 308 313 321 326 328 330 330
314 319 316 317 319 318 318 318 319 318 317 316 315 316 316 317 317 317 316 319 332 343 345 345 346 351 351 349 348 348 349 348 349 349 349 348 346 344 344 344 344 340 335 333 333 332 331 330 328 326 325 323 321 321 324 325 323 316 311 310 311 311 312 313 314 316 316 318 322 325 328 331 333 334 333 333 332 331 329 328 327 325 322 315 311 309 309 308 308 308 309 316 322 326 329 330 329
317 318 316 317 317 317 317 318 319 318 317 316 315 315 317 317 316 317 316 317 332 346 347 348 349 350 350 350 348 347 348 348 349 349 347 346 343 341 340 340 340 337 334 334 333 332 331 329 326 324 323 322 322 323 325 324 320 314 310 310 310 311 312 313 313 315 315 315 318 321 323 327 330 331 331 330 330 330 328 328 326 323 318 313 309 309 309 308 309 308 309 318 323 326 329 329 328
319 317 318 319 318 317 317 317 318 318 316 316 317 316 317 317 316 317 317 320 335 347 347 348 350 350 350 349 348 347 347 348 349 349 346 344 342 341 339 338 337 335 335 334 334 332 330 327 324 321 321 321 321 322 323 321 318 313 310 310 310 310 312 312 313 314 315 314 316 318 319 322 324 326 326 325 325 326 325 324 322 320 316 311 309 309 309 308 309 308 310 318 323 326 330 330 329
321 317 317 319 318 318 317 316 318 320 319 317 317 317 318 315 316 317 317 328 342 347 347 347 349 349 350 350 348 347 347 348 349 348 346 343 343 343 342 340 337 335 335 335 334 332 328 325 321 319 319 319 319 321 321 319 317 313 310 310 310 310 310 312 313 314 314 314 314 316 318 319 320 321 322 322 322 322 320 320 319 317 314 310 309 309 309 309 309 309 311 317 322 326 330 330 330
321 317 316 317 316 317 316 315 317 318 319 318 316 316 317 316 316 315 321 339 345 344 345 347 348 349 351 350 349 348 346 347 348 347 346 344 344 344 344 343 340 336 335 335 334 331 328 323 320 318 318 319 320 321 321 319 317 313 311 310 309 310 310 311 312 313 314 314 313 314 316 317 318 319 321 321 321 320 318 317 316 315 313 310 309 309 309 309 309 310 313 318 323 326 329 331 331
319 317 316 317 316 315 315 316 317 315 317 317 316 315 317 327 326 319 326 343 347 345 346 347 345 348 352 351 350 349 347 347 347 347 347 345 345 345 345 345 344 341 336 335 333 330 327 322 319 318 318 319 320 320 319 318 316 314 313 311 309 310 310 310 311 312 313 313 313 313 315 317 318 320 322 322 322 320 317 316 315 314 312 310 309 309 309 309 309 311 314 320 325 328 329 330 331
318 316 314 315 315 315 314 315 316 315 317 316 317 315 319 337 341 334 337 341 348 347 346 347 343 345 350 351 350 348 347 347 347 347 347 346 346 346 346 346 345 344 339 335 333 329 325 322 319 319 319 319 319 319 317 316 315 315 314 312 310 309 310 310 310 311 313 313 313 314 315 316 318 321 323 323 323 322 319 316 314 313 311 310 309 309 309 309 309 310 314 320 325 328 329 330 329
318 316 314 315 314 314 316 316 316 315 318 316 316 314 317 339 347 344 345 343 347 347 345 346 343 346 350 350 349 348 348 348 347 348 348 347 346 346 347 346 346 346 341 336 332 329 325 323 320 319 319 319 319 318 317 316 315 315 315 314 311 310 310 310 310 310 311 313 313 314 315 315 317 321 323 324 324 323 321 318 315 313 311 310 310 310 309 309 309 309 314 320 324 327 329 330 329
318 317 315 315 314 314 316 318 316 316 318 316 316 315 316 337 348 344 346 347 348 348 348 348 347 349 350 350 349 348 348 348 348 348 348 347 347 347 347 347 346 345 340 336 332 329 326 324 321 320 319 318 318 318 317 316 315 315 315 314 313 311 310 310 310 310 310 311 313 314 316 316 317 319 321 323 323 323 323 321 318 314 312 311 310 310 310 309 310 309 312 318 324 326 327 330 329
318 318 316 316 315 313 314 316 315 315 316 315 315 316 315 329 344 344 347 348 349 351 350 349 350 351 350 350 348 348 348 348 349 348 348 347 347 347 346 346 346 343 338 335 333 329 327 325 322 320 319 318 317 316 316 315 315 315 315 315 314 313 311 310 310 310 310 310 311 314 316 317 316 317 318 319 320 321 321 321 321 318 314 312 311 311 311 310 309 309 310 315 322 325 326 329 330
318 318 317 317 315 313 314 314 315 315 315 314 314 317 315 322 337 345 346 346 349 351 351 350 351 351 350 350 348 348 348 348 349 348 348 348 347 346 345 345 345 342 337 335 334 330 328 325 323 321 319 318 316 316 315 315 315 315 315 314 314 314 312 312 311 311 310 310 311 312 314 316 315 314 315 316 317 318 319 320 321 320 317 314 313 312 312 311 310 309 309 312 319 323 326 329 330
316 317 319 318 314 314 316 315 316 316 315 315 315 317 316 322 338 345 345 347 349 349 350 350 350 351 350 350 349 349 349 349 349 348 348 348 347 345 344 344 343 341 337 335 334 331 329 327 325 323 320 318 317 317 318 319 319 318 317 316 316 315 314 313 312 311 310 310 310 311 312 314 315 315 314 314 314 316 317 318 320 321 319 317 315 314 313 313 312 310 308 310 316 322 325 328 330
316 316 317 317 315 315 317 317 317 316 315 315 315 316 318 329 344 345 342 348 349 347 350 349 349 350 350 350 349 349 350 349 349 347 346 346 346 345 343 342 341 340 338 336 335 333 332 330 326 324 321 320 320 322 324 325 325 325 324 323 323 321 320 319 317 316 314 312 311 310 311 313 316 320 319 317 316 315 315 316 318 320 320 319 317 316 315 315 315 313 309 309 313 320 324 327 330
317 317 315 315 315 315 316 317 316 316 316 314 315 316 319 334 344 341 342 347 346 347 350 351 350 350 350 349 349 350 350 349 348 345 344 345 345 345 344 343 342 340 338 337 336 335 334 332 328 326 323 322 324 326 328 329 329 329 330 330 329 329 328 327 326 325 322 318 315 312 312 317 321 324 325 325 325 323 322 321 319 318 318 319 319 318 317 317 317 316 312 309 310 316 322 326 329
317 317 315 315 315 314 315 317 316 317 316 314 316 315 320 335 342 341 346 348 348 349 350 351 351 350 350 350 349 350 350 349 346 343 344 345 344 345 345 345 343 341 339 337 336 337 336 334 331 329 326 324 326 329 331 332 332 331 332 332 332 332 332 331 330 331 329 324 321 321 322 325 326 326 326 327 331 332 332 331 329 324 319 318 318 318 319 319 320 319 315 311 310 313 319 325 329
315 316 315 315 316 315 316 316 316 317 316 316 316 316 326 340 344 345 349 350 350 351 351 351 351 351 350 350 350 350 350 348 344 342 344 345 345 346 345 345 344 343 342 339 338 339 338 335 334 332 330 326 328 331 333 335 333 332 333 333 333 334 333 332 332 332 333 331 328 328 330 331 331 331 330 330 331 333 334 334 334 333 329 323 319 317 319 321 321 322 319 313 311 313 318 326 329
315 315 315 314 315 315 316 315 316 317 316 317 315 323 338 343 345 347 348 350 350 351 351 351 350 350 350 350 350 349 350 348 342 339 342 345 346 345 346 345 345 344 344 342 340 341 339 337 336 335 333 331 332 335 336 336 335 334 335 335 335 335 335 334 334 334 334 334 333 332 332 333 333 334 334 333 333 333 334 334 334 335 335 332 326 319 318 321 322 323 323 317 312 314 321 326 326
315 314 314 314 314 314 315 314 316 316 316 316 314 328 339 337 344 349 348 350 351 350 350 350 350 350 350 350 348 347 349 347 340 338 341 344 345 345 346 345 345 344 344 344 341 341 340 339 339 337 337 336 336 337 337 338 337 336 336 336 337 337 337 336 336 336 336 335 335 334 334 334 334 334 334 335 335 335 335 334 334 334 335 335 333 326 318 319 322 323 324 321 316 315 320 324 325
313 313 313 313 313 312 313 313 316 316 316 318 314 322 327 328 346 350 348 350 349 350 350 350 351 350 350 349 348 347 348 346 342 340 340 340 342 344 345 345 344 344 344 344 342 342 341 340 341 339 338 338 337 337 338 338 338 338 337 337 337 337 337 336 336 336 336 335 335 335 335 335 335 335 335 335 335 335 335 334 334 334 335 335 336 333 325 319 319 321 323 324 322 320 322 326 329
311 312 314 315 313 313 314 312 315 316 316 319 315 317 317 323 344 349 347 350 349 349 349 349 349 348 349 347 347 347 346 345 344 342 339 339 342 343 343 343 343 344 344 344 343 343 342 341 341 339 338 337 337 337 338 338 337 337 337 336 336 336 336 335 335 336 335 335 334 334 335 335 335 335 335 335 335 335 334 334 334 334 335 335 335 335 333 327 322 320 320 322 323 324 326 329 332
312 312 312 315 314 314 315 312 315 315 316 318 315 318 317 321 339 348 348 349 348 348 349 348 347 346 347 347 346 346 345 345 344 342 341 341 343 342 341 341 341 342 343 343 343 343 343 342 340 338 337 337 338 337 337 337 336 335 335 335 335 335 335 335 335 335 335 334 333 333 334 334 335 335 335 335 335 334 334 334 334 334 334 335 335 335 335 334 330 325 320 319 321 322 324 326 329
312 311 313 315 312 317 318 312 314 315 315 317 315 317 317 323 339 348 347 348 348 348 348 347 345 343 346 346 345 345 344 344 343 342 342 342 341 341 340 340 340 340 341 342 342 342 342 341 340 338 336 336 337 337 337 336 335 334 334 334 334 335 335 334 334 334 334 333 332 333 333 333 334 334 335 335 334 334 333 333 333 333 334 334 334 334 334 335 334 331 326 321 318 320 323 325 326
315 311 315 317 312 318 320 312 314 316 315 315 316 318 316 324 340 346 347 348 347 347 347 347 345 343 345 345 344 344 343 343 343 342 342 342 342 341 341 340 339 338 339 341 341 341 341 340 339 337 336 335 336 337 337 336 334 334 334 334 334 334 334 334 334 334 334 334 333 334 334 334 334 334 335 335 334 334 333 333 332 332 333 333 333 333 334 334 334 333 331 328 323 320 323 328 329
320 314 317 319 312 315 317 312 312 314 316 314 315 318 316 323 337 343 346 347 347 347 346 346 344 344 344 344 343 343 343 342 343 342 342 342 342 342 341 340 339 338 338 340 341 341 340 339 337 336 335 334 335 336 336 335 335 335 335 334 334 334 334 334 335 334 335 335 335 335 335 335 334 334 334 334 334 333 333 333 333 332 332 332 332 332 333 333 333 333 333 332 329 325 325 328 330
318 314 314 317 314 313 314 314 313 311 316 315 314 319 316 322 333 337 338 342 346 346 346 345 343 344 343 343 343 342 342 341 341 341 341 340 340 341 340 340 339 338 338 339 339 339 339 338 336 335 335 335 335 336 336 335 335 335 335 335 334 335 335 334 334 335 335 335 335 334 335 335 335 335 335 334 334 333 334 334 333 333 332 331 331 332 332 333 333 333 333 333 333 331 329 329 330
315 314 315 315 313 313 313 315 314 312 317 315 315 317 313 322 335 336 333 336 344 345 344 344 342 342 343 342 342 341 342 342 342 341 339 339 338 339 339 339 339 337 338 338 338 338 338 337 336 336 336 335 336 336 336 335 334 335 335 335 335 335 335 335 335 335 335 335 334 334 334 334 335 335 335 335 334 334 334 334 333 333 332 331 330 331 332 333 333 333 333 332 333 333 333 332 332
315 317 320 318 314 314 314 316 315 313 317 314 317 321 318 327 336 334 330 331 340 341 339 340 341 341 341 341 341 342 343 343 343 342 340 339 339 339 339 338 338 337 336 336 337 338 338 337 337 336 336 336 336 336 336 335 335 335 336 336 336 335 335 335 335 335 335 334 334 334 333 333 333 334 334 334 334 333 333 333 333 333 332 332 331 331 331 331 333 334 333 333 332 332 333 333 333
312 314 317 315 313 314 314 315 314 314 315 316 329 339 336 339 338 331 330 331 334 335 334 335 339 340 340 341 342 343 343 343 343 342 340 339 339 339 339 338 337 336 336 335 335 336 336 337 337 337 336 336 336 336 336 336 336 336 336 336 336 336 336 335 335 335 334 334 334 334 332 333 333 334 334 334 334 333 332 332 331 331 332 331 331 331 330 331 332 333 333 333 332 332 332 332 331
311 312 314 313 313 314 314 315 314 313 315 322 334 343 338 340 340 334 336 336 332 333 334 335 338 340 340 341 342 342 341 341 341 340 339 339 339 339 338 338 337 337 336 336 335 335 335 336 336 336 336 336 335 336 336 337 337 337 336 336 336 336 336 336 335 335 335 335 333 332 332 333 333 334 334 334 333 333 332 331 331 331 331 332 331 331 330 330 331 332 332 332 332 331 331 330 330
311 311 312 313 313 313 313 316 316 313 318 330 336 341 337 337 338 335 338 339 337 337 338 338 339 339 339 340 340 339 340 341 341 340 339 339 339 339 338 338 338 337 337 336 336 335 335 336 335 336 336 335 335 335 337 337 337 337 337 336 336 336 336 336 335 335 335 333 332 332 333 334 334 334 333 333 332 332 331 331 330 331 331 332 332 332 331 331 331 331 332 332 332 331 330 330 329
313 312 312 313 313 313 314 316 320 322 327 334 337 339 339 338 337 337 338 338 338 338 339 339 339 339 339 338 338 339 340 340 340 340 340 340 339 338 338 338 337 337 337 336 336 335 334 335 335 336 336 335 335 335 336 336 337 337 337 336 336 336 336 336 335 335 333 332 333 334 335 335 334 333 332 332 331 330 330 329 329 329 330 331 332 332 332 332 331 330 330 331 331 331 330 329 329
313 314 313 312 312 313 315 314 320 331 333 334 336 338 339 339 339 339 336 334 333 333 334 336 337 337 338 337 338 339 339 338 339 339 339 339 339 338 337 337 337 336 335 334 335 334 333 333 335 335 335 335 336 335 335 335 335 336 336 336 336 336 336 334 334 334 332 332 334 335 334 334 334 333 333 332 332 330 329 329 329 328 329 331 332 332 332 332 332 332 330 330 330 330 330 329 328
312 314 313 312 312 313 315 315 320 332 334 332 333 337 340 340 340 340 335 333 332 330 331 334 335 335 336 337 338 337 336 337 338 338 338 338 338 337 336 336 336 335 333 333 334 334 333 333 334 334 334 334 335 334 334 334 334 334 335 335 336 336 336 335 334 334 333 332 334 334 334 334 334 334 333 333 333 332 331 330 330 330 331 331 332 332 332 331 331 332 331 330 329 329 329 329 328
312 314 313 311 313 313 313 315 318 325 331 329 325 332 340 339 339 340 336 334 332 330 332 333 333 333 333 335 336 335 334 336 337 336 337 338 337 336 336 335 335 334 333 333 334 334 333 333 332 332 332 332 332 333 333 333 333 333 333 333 334 335 336 335 335 335 334 334 335 334 334 334 335 334 334 333 333 333 332 332 332 332 332 332 332 332 332 331 331 331 331 331 330 329 328 328 328
312 314 312 310 312 313 313 313 314 318 322 320 321 331 339 340 340 337 335 334 333 332 334 332 331 331 331 332 334 334 333 334 335 333 334 336 336 335 335 335 334 333 333 334 334 334 334 333 331 331 331 332 331 331 331 331 331 331 332 332 332 334 335 335 335 334 334 334 335 334 334 334 334 334 333 333 333 332 332 332 332 333 333 332 332 331 331 331 331 331 330 330 330 330 329 329 329
313 314 312 313 312 312 314 313 314 319 317 314 325 335 338 340 339 333 332 334 334 333 333 331 330 329 330 331 331 331 330 331 333 332 332 334 335 334 334 334 333 332 332 334 334 334 334 333 332 331 331 331 331 330 330 330 330 331 331 331 331 332 333 334 334 334 334 334 334 334 333 333 332 332 332 333 333 332 331 332 332 333 333 332 332 331 331 330 331 330 330 330 330 330 330 330 330
313 313 314 314 313 313 313 313 313 316 316 315 325 335 337 339 337 333 333 334 333 332 331 330 330 329 329 329 329 329 327 328 332 332 331 332 333 333 333 333 333 331 331 332 333 333 332 332 332 332 330 330 330 329 330 330 330 331 331 330 331 332 332 332 332 332 332 332 332 332 332 331 331 331 332 332 332 331 331 331 331 332 332 332 331 331 330 330 330 330 330 330 330 330 330 330 330
311 312 314 312 315 317 315 319 318 315 316 317 323 331 334 337 337 334 334 334 332 331 331 330 329 329 329 328 327 327 326 327 329 330 329 329 331 331 331 332 332 331 331 331 331 331 331 330 330 330 330 329 328 328 329 329 330 331 332 331 331 332 332 332 332 331 331 331 331 330 330 330 329 330 331 331 331 330 329 330 330 331 331 331 331 330 330 330 330 330 330 330 330 330 330 330 330
311 313 313 312 318 319 313 317 317 315 319 319 322 328 329 333 338 334 333 334 332 331 331 330 329 328 327 327 326 326 326 326 327 328 328 328 330 330 330 330 330 329 330 330 330 330 329 329 328 328 327 327 327 326 327 327 328 329 330 330 330 330 330 331 332 331 330 330 330 330 329 329 328 329 330 330 329 329 329 329 330 330 330 330 330 330 330 329 329 329 330 330 330 330 329 329 330
311 314 314 313 316 315 313 316 316 318 322 318 320 326 327 331 334 331 333 334 331 329 329 328 328 328 327 326 325 325 326 326 327 328 328 328 329 329 328 328 327 327 327 328 328 328 327 327 327 326 325 324 324 324 325 325 326 327 327 328 328 329 328 329 329 329 329 329 328 329 328 328 327 326 327 327 327 327 328 328 328 329 330 330 330 329 329 329 329 329 329 329 330 330 329 330 329
310 312 313 314 315 314 314 316 317 319 320 318 319 323 328 332 331 329 332 332 329 328 327 327 327 326 326 325 324 324 324 326 326 327 328 328 327 327 327 326 326 325 325 325 324 324 325 325 324 323 322 322 321 321 322 323 324 325 326 326 327 327 327 327 327 327 327 326 326 326 326 326 325 325 325 326 326 326 326 326 326 327 328 329 329 329 328 328 328 329 329 329 329 329 329 329 329
309 311 313 314 317 318 316 317 318 316 317 321 323 323 328 333 330 327 329 329 328 327 326 326 326 325 324 323 323 323 323 324 325 325 326 325 324 324 325 324 324 324 323 323 322 322 322 322 321 320 320 319 319 318 319 320 321 322 322 323 324 324 324 324 324 324 323 323 323 323 323 323 323 323 324 325 325 324 324 324 324 324 326 327 328 328 328 328 329 329 329 328 328 328 328 328 329
309 311 312 312 317 322 319 321 325 323 322 324 326 327 328 328 326 324 326 327 325 326 325 325 324 323 323 322 322 322 322 323 323 323 322 322 322 322 322 322 321 321 321 321 321 321 320 320 319 319 318 317 317 316 316 317 317 318 318 319 319 319 320 320 320 320 320 320 320 320 321 321 321 321 322 323 324 324 323 323 323 322 323 325 326 327 328 328 328 328 328 328 327 327 328 328 329
312 311 312 311 315 321 317 316 320 323 324 325 325 328 327 327 327 325 325 326 325 325 324 324 323 323 322 321 321 321 321 321 321 320 320 320 320 320 320 320 319 319 319 320 320 320 319 318 318 317 316 315 315 315 315 315 316 316 317 317 317 317 317 317 318 318 318 319 319 319 319 320 320 319 320 321 322 322 322 322 322 322 323 324 325 326 327 326 326 326 327 327 327 327 328 328 328
312 310 312 313 314 318 320 320 319 319 326 327 324 328 330 329 330 327 326 327 326 325 324 323 322 322 321 320 320 320 320 320 319 319 319 319 319 319 319 318 318 318 318 319 319 318 318 317 316 315 315 315 315 315 315 315 315 316 316 316 316 316 316 316 317 317 317 317 317 317 318 318 318 319 319 319 320 320 320 321 321 321 322 322 324 325 325 325 325 325 326 326 326 326 327 327 327
313 311 312 315 316 316 319 322 318 317 325 328 327 328 328 329 328 327 328 327 326 325 323 323 322 321 320 320 319 320 319 319 319 318 318 319 319 319 318 318 317 318 318 318 317 317 316 316 315 314 314 314 314 314 314 315 315 315 315 316 316 316 316 316 316 316 316 316 316 316 316 317 317 317 318 319 319 320 320 320 320 320 320 321 322 322 323 324 324 325 326 326 326 326 326 326 326
312 312 311 315 318 317 316 318 320 324 328 328 330 329 328 329 326 326 328 326 325 325 323 322 322 320 319 319 319 319 319 318 318 317 318 318 318 318 318 317 317 317 317 317 316 316 316 315 314 314 314 314 314 313 313 314 314 314 314 315 315 315 315 315 315 315 315 316 316 316 316 317 317 317 317 318 318 319 319 320 319 318 318 319 319 320 321 321 322 323 325 326 327 326 326 325 325
311 312 312 313 314 315 316 317 319 329 333 329 330 331 330 329 325 324 326 324 323 324 322 322 320 318 318 318 318 318 318 318 317 317 317 317 317 317 317 317 316 316 316 315 315 315 315 315 314 314 314 313 313 313 313 313 313 313 313 314 314 314 314 314 314 314 315 315 316 316 316 316 316 316 316 317 317 318 318 319 318 318 318 318 318 319 319 319 319 320 322 324 325 326 325 325 324
313 314 314 314 315 315 317 316 315 325 334 330 331 335 331 327 325 325 324 323 322 322 321 320 318 318 318 318 318 318 317 317 316 316 317 316 316 316 316 316 315 315 315 314 314 314 315 315 314 314 313 313 312 312 312 312 312 312 312 312 313 313 313 312 313 314 314 315 315 315 315 315 315 315 315 315 316 316 317 317 317 317 318 318 318 317 318 318 318 318 319 320 321 322 323 323 323
Wind_Speed
8 7 6 5 3 2 1 1 1 2 2 1 3 2 4 5 2 4 6 4 4 5 1 1 6 12 9 9 11 12 12 4 2 3 4 12 25 28 23 21 22 23 23 24 25 24 22 20 19 19 18 16 15 14 12 12 12 12 13 13 14 14 15 15 15 17 17 18 17 17 16 16 16 17 17 17 16 16 15 14 13 13 13 13 12 12 12 12 12 12 12 13 12 11 11 13 13
8 7 6 5 2 2 1 2 1 2 2 2 3 3 5 3 3 7 5 4 4 2 10 14 19 16 12 12 10 9 13 11 6 12 15 22 28 26 23 20 22 23 22 24 24 24 23 21 20 19 18 17 15 14 12 12 12 12 13 13 13 14 14 14 15 16 17 17 17 16 16 16 17 17 18 17 17 16 15 15 14 13 13 13 12 12 11 11 11 12 12 12 10 10 11 12 13
8 7 6 6 2 1 1 2 1 1 2 4 5 4 3 2 7 6 3 6 7 15 18 17 15 11 9 9 9 7 6 9 15 22 21 24 27 24 22 20 23 24 22 24 24 24 23 21 20 19 18 17 15 14 13 12 12 13 13 13 13 13 14 14 15 16 17 17 16 15 15 16 17 17 17 17 17 16 16 15 14 13 13 13 12 11 11 11 11 11 11 11 9 10 12 12 12
8 6 6 5 2 1 3 2 2 4 3 4 4 6 3 5 11 3 4 4 8 14 8 7 8 10 13 10 6 9 6 8 16 21 22 25 27 25 24 23 24 24 23 23 23 24 23 22 20 19 18 17 16 15 13 13 12 13 14 14 13 13 14 14 15 16 16 16 16 15 15 16 17 17 16 16 16 16 16 15 14 13 12 11 11 10 10 10 9 9 9 10 10 12 14 13 13
7 5 5 4 3 1 2 1 2 4 4 4 3 6 4 8 9 0 3 5 9 9 3 1 4 9 15 11 4 7 11 13 15 19 24 25 24 25 25 25 24 23 22 22 23 23 23 22 20 19 19 18 17 15 14 13 13 13 14 14 13 13 14 14 15 15 16 16 16 15 15 16 16 16 16 16 16 16 15 15 14 12 11 10 10 9 8 8 7 8 10 11 13 15 15 14 12
5 3 3 3 2 1 2 1 2 3 5 5 3 6 6 8 6 2 5 9 12 13 6 2 8 13 13 12 10 11 13 13 17 22 25 24 23 23 24 24 22 21 21 22 23 22 22 21 20 19 19 18 17 16 16 14 14 14 14 14 13 13 14 14 14 15 16 16 16 15 15 16 16 15 15 15 15 14 14 13 12 11 10 9 8 7 6 6 7 9 11 13 15 16 16 14 11
4 3 3 3 1 1 3 3 4 5 5 6 4 7 7 8 6 3 6 6 4 4 3 4 18 20 8 6 10 10 9 13 21 23 25 26 24 23 22 21 20 20 21 23 22 22 21 20 20 19 19 19 18 17 16 15 14 14 14 14 14 13 13 14 14 15 16 16 16 15 15 16 15 15 15 15 14 13 12 11 10 9 9 8 7 7 7 8 9 11 12 14 17 17 16 14 11
4 4 3 3 1 2 2 2 4 4 4 5 5 9 11 13 11 4 1 1 3 2 5 9 15 14 5 4 7 8 13 16 21 23 26 25 23 22 20 19 18 20 22 23 23 22 21 20 19 19 19 19 19 18 17 16 15 14 14 14 14 13 13 14 14 14 15 16 16 15 15 15 15 15 14 14 13 12 11 10 9 8 8 7 8 8 9 9 10 10 12 15 18 18 16 14 12
5 4 2 2 2 1 0 2 4 4 5 6 7 14 18 20 15 7 4 3 3 3 7 4 4 8 10 13 11 12 18 19 22 23 23 21 19 18 16 16 16 20 24 24 23 21 20 19 18 18 18 19 18 18 17 16 15 14 14 14 14 13 12 13 14 13 14 16 15 15 14 15 15 14 14 13 13 12 11 10 9 7 7 7 8 9 10 10 11 10 12 16 18 18 16 14 12
5 3 2 2 3 1 3 3 3 3 6 6 9 17 21 23 16 10 8 4 8 8 5 3 9 16 16 15 12 17 23 23 23 23 21 18 16 14 14 16 17 22 26 24 22 20 19 18 18 18 18 18 18 18 17 16 14 14 14 15 14 13 12 13 13 13 13 14 14 14 14 14 14 14 13 12 12 11 10 9 8 6 6 7 9 9 9 10 11 11 13 17 18 18 16 14 12
3 1 2 3 2 2 4 3 4 4 6 5 10 21 25 25 17 11 8 6 11 12 12 12 15 22 19 11 13 21 26 24 22 23 20 18 16 15 16 18 21 24 25 23 21 20 19 18 18 18 18 18 17 17 16 15 14 14 15 15 15 14 13 12 13 13 12 12 13 13 13 13 13 13 12 11 11 10 10 8 7 6 6 8 9 9 9 10 11 12 14 17 18 17 16 14 11
3 0 3 3 2 4 4 3 4 5 7 5 8 18 22 20 14 9 5 7 12 13 13 13 15 22 14 6 17 25 27 24 22 22 21 20 18 18 19 21 23 23 22 22 21 19 19 19 19 18 18 17 17 16 16 15 15 15 15 16 15 14 13 12 12 13 12 11 12 12 12 12 12 12 11 10 10 9 9 8 7 6 7 9 9 9 9 10 11 12 15 17 18 17 16 13 11
4 1 5 2 3 3 3 3 4 5 6 5 7 13 17 12 12 11 6 11 15 12 9 17 24 21 11 10 22 27 27 25 22 22 21 21 20 19 20 21 22 22 22 21 20 19 19 19 18 18 18 17 17 16 16 15 15 14 14 15 14 13 13 11 11 12 11 10 10 11 11 11 10 10 10 9 8 8 8 7 7 7 8 9 9 10 10 10 11 13 16 17 18 17 15 12 10
5 3 4 1 1 2 3 3 4 3 4 6 4 13 16 9 12 13 12 11 10 13 11 24 31 19 14 15 20 26 27 26 24 22 21 21 20 20 19 19 20 21 21 20 19 18 18 18 18 18 18 17 17 16 15 14 14 13 13 13 14 14 12 11 11 10 9 9 9 9 10 9 9 8 8 8 7 7 7 7 7 7 8 9 9 10 10 11 11 13 16 18 18 16 14 12 10
6 3 3 1 1 1 2 3 3 4 4 5 5 19 18 6 3 8 19 14 5 15 19 27 24 13 18 16 16 29 28 27 25 22 21 20 20 18 18 18 17 18 19 19 18 17 17 18 18 18 18 17 16 16 15 14 13 12 12 12 13 13 12 11 11 9 8 8 8 8 9 8 8 8 7 7 7 6 6 6 6 7 8 8 9 10 10 11 11 13 16 18 18 16 14 13 10
5 2 3 1 2 2 3 4 3 4 5 4 10 20 15 6 7 8 14 19 15 17 19 19 10 7 23 21 24 35 30 28 25 21 21 20 21 19 17 16 15 15 17 19 18 18 18 18 19 18 17 16 15 15 15 14 13 12 11 11 11 12 11 11 10 9 9 8 8 8 8 8 8 8 7 7 7 6 6 6 6 7 7 8 9 9 10 10 11 13 15 18 18 16 15 13 11
4 1 2 2 3 3 3 4 3 3 6 6 16 20 9 6 9 14 13 23 23 15 12 9 8 15 27 25 32 37 31 30 25 22 22 21 22 19 17 15 15 15 17 20 18 18 18 17 17 16 16 14 14 13 13 13 12 12 11 11 10 10 10 10 10 9 9 8 7 7 7 7 7 8 8 7 7 6 5 5 5 6 7 8 8 9 9 9 10 12 14 17 18 17 15 13 11
5 2 2 3 3 4 4 5 4 3 6 6 16 21 8 3 6 17 16 19 24 20 17 17 16 22 28 29 35 34 32 31 25 24 22 23 22 19 18 15 15 16 18 20 17 16 15 15 15 14 14 13 13 12 12 11 11 11 10 10 9 9 10 10 10 9 9 8 8 7 6 7 7 8 8 8 7 6 6 5 5 5 6 7 7 8 8 8 9 10 13 16 18 17 16 14 11
7 2 2 4 3 5 5 6 6 5 7 8 16 21 11 2 4 13 10 10 19 20 18 26 31 30 31 33 34 33 34 30 24 23 21 22 20 18 18 15 16 17 20 21 18 16 14 14 13 13 13 11 11 10 10 9 9 9 9 8 8 8 9 10 10 9 9 8 8 8 7 8 8 8 8 8 8 7 6 6 6 5 5 6 7 7 7 7 7 9 12 15 17 17 16 14 12
9 5 2 5 5 6 10 12 14 15 11 8 13 17 13 6 5 10 10 9 11 14 19 26 32 35 36 35 35 35 32 27 24 21 19 20 17 16 16 14 16 18 22 22 19 18 15 14 13 12 12 11 10 9 8 7 7 8 8 8 7 7 8 9 9 9 9 9 9 8 8 8 7 7 7 8 8 8 6 6 7 6 5 5 6 6 6 6 6 8 10 14 17 18 17 15 13
6 7 4 5 5 4 12 16 18 20 12 8 11 11 11 5 6 13 16 11 3 9 25 34 39 41 40 37 37 35 30 27 24 19 18 18 16 17 16 15 16 18 22 21 19 18 16 14 13 13 12 11 10 9 8 8 8 8 7 8 7 7 7 8 8 8 8 8 8 8 8 7 6 5 5 6 6 7 6 5 5 6 6 5 5 6 6 6 6 7 9 13 17 19 18 16 15
2 4 6 7 6 4 13 19 18 17 11 9 9 6 6 2 8 15 13 7 4 10 21 37 48 47 43 42 38 34 31 28 23 19 19 18 18 20 18 16 16 18 21 20 19 18 17 16 14 13 12 12 11 10 9 8 8 7 7 7 7 7 7 7 6 6 6 6 6 6 7 6 5 4 3 3 3 4 5 4 4 5 6 6 6 6 6 6 6 6 7 11 16 20 19 18 17
4 4 5 9 11 7 15 21 19 17 11 9 7 5 3 4 6 7 3 5 9 16 23 34 43 44 44 42 38 36 32 28 23 20 19 17 17 20 18 16 16 18 20 20 18 16 17 16 14 13 11 12 11 10 9 8 8 7 7 6 6 6 5 5 4 4 4 3 4 5 6 5 4 3 3 3 2 3 3 4 5 5 6 6 7 7 7 7 6 7 7 9 15 19 20 19 18
6 4 3 10 13 11 19 23 23 23 17 16 13 5 2 5 4 3 9 12 18 25 31 34 35 38 40 39 37 36 32 27 22 19 18 15 13 16 17 16 15 16 18 19 17 15 16 16 13 12 11 11 11 10 8 7 8 7 6 6 6 5 4 4 3 3 3 4 5 5 5 5 5 5 5 5 4 4 4 5 5 6 7 8 8 8 9 9 8 7 8 8 12 17 19 19 18
5 5 6 9 12 15 22 24 26 27 22 21 12 0 5 10 10 9 10 20 27 31 34 34 35 35 35 36 35 35 32 26 21 19 18 16 13 14 16 15 15 15 15 16 17 14 15 15 13 12 11 10 10 10 8 8 8 8 7 7 7 6 5 5 5 4 4 5 6 6 5 6 6 7 7 7 7 6 7 8 7 6 7 8 10 10 10 10 10 9 8 8 10 15 18 18 17
5 8 10 9 11 16 18 19 22 23 21 17 3 6 11 18 15 10 11 23 31 33 34 33 34 33 32 33 33 34 32 26 21 19 18 18 16 14 15 15 14 14 13 14 15 13 14 15 13 13 11 10 11 10 10 9 8 9 8 8 7 7 6 6 6 5 5 6 6 7 7 7 7 8 8 9 9 8 9 10 10 9 8 8 10 11 12 12 12 11 9 9 10 13 16 18 16
5 8 10 10 14 17 14 13 18 18 19 15 1 7 9 12 7 5 13 25 32 34 33 31 31 32 33 32 30 31 29 25 22 18 18 18 17 15 14 14 14 13 13 13 14 13 14 15 14 13 13 12 12 11 11 10 9 9 8 8 7 7 7 7 6 5 5 6 7 8 9 10 10 10 10 10 10 10 10 10 10 11 10 9 9 10 13 14 14 13 12 11 12 14 16 18 17
9 8 7 10 12 13 12 9 12 10 11 12 3 6 3 4 4 10 19 26 32 35 31 28 31 32 33 31 29 27 26 25 22 18 16 15 16 15 14 15 14 14 13 13 13 14 14 14 14 14 13 13 13 12 11 10 9 9 8 7 7 7 7 7 6 5 5 6 7 8 9 11 12 12 12 11 11 12 12 11 11 12 11 11 10 10 11 14 15 16 15 15 15 16 17 18 18
11 7 3 7 6 6 9 7 9 8 4 9 2 5 3 5 6 19 25 28 31 31 29 28 31 31 30 30 29 26 25 24 21 17 15 14 15 15 15 15 14 14 14 14 14 14 14 14 14 15 14 14 14 12 11 10 9 8 7 7 6 7 7 7 6 6 6 6 7 8 8 9 10 11 12 12 12 12 13 13 13 12 12 12 12 12 12 13 15 16 17 18 18 19 19 19 19
9 4 2 4 6 5 7 4 9 9 5 8 2 1 5 4 9 24 28 31 31 26 25 27 29 30 31 32 30 27 25 23 19 17 16 16 16 15 14 13 13 14 14 14 14 14 14 14 14 15 14 14 13 12 11 10 8 7 7 7 7 7 7 7 7 6 6 6 7 8 8 8 9 10 11 11 12 12 12 13 13 13 12 13 14 14 14 14 15 16 17 19 19 20 21 21 21
3 1 0 0 1 5 7 1 8 7 6 7 5 1 5 1 10 23 28 32 34 25 21 24 28 30 32 32 29 27 25 21 19 18 17 17 17 15 13 13 13 13 14 14 15 15 14 14 15 15 14 14 13 11 11 10 9 8 7 7 7 7 6 6 6 6 6 6 7 8 8 9 10 10 11 12 11 11 11 12 12 12 13 14 15 15 15 15 15 15 16 18 19 20 22 22 22
2 1 3 2 3 5 8 2 9 8 3 5 7 0 4 3 12 24 28 31 31 24 22 25 28 31 30 29 28 26 23 21 20 20 19 17 16 15 14 13 13 13 14 15 15 15 14 14 14 14 13 12 12 11 10 10 10 8 7 7 7 6 5 5 5 5 6 6 7 7 8 9 10 11 11 12 12 12 12 12 12 12 13 15 16 16 16 16 16 16 17 18 19 20 22 22 21
3 1 2 2 2 3 4 3 6 6 2 2 4 3 2 3 13 23 26 28 28 23 23 27 28 30 29 28 29 27 24 23 21 21 21 18 16 15 14 14 14 13 12 14 15 15 14 14 13 12 11 11 11 10 9 9 9 8 8 7 6 5 5 5 5 6 6 6 7 7 8 8 9 10 11 12 12 12 12 12 12 12 13 14 16 16 17 17 17 17 18 18 19 20 21 22 23
2 0 2 2 3 3 2 3 5 2 4 1 2 3 3 5 12 21 23 23 23 23 26 29 28 29 30 29 28 27 27 25 23 21 21 19 16 15 14 14 13 12 12 13 13 14 14 13 13 12 11 11 10 9 9 10 9 9 8 7 6 5 5 5 6 6 6 7 7 7 8 9 9 10 10 11 12 12 13 13 12 12 13 14 14 16 17 17 17 18 18 18 19 21 22 23 23
3 2 2 2 2 2 3 3 3 2 4 3 4 3 2 5 12 20 21 18 19 24 27 29 28 29 30 28 27 28 28 26 23 21 19 18 17 16 15 13 12 11 11 12 12 13 13 13 13 12 11 11 11 10 10 10 9 9 7 6 6 5 5 6 6 7 7 7 7 8 9 9 9 10 11 12 13 13 14 13 12 12 13 14 14 15 16 17 18 18 18 18 19 21 22 23 23
7 5 4 3 3 3 4 5 5 3 5 3 5 3 1 7 10 13 18 13 12 19 23 24 26 28 28 27 28 29 28 27 25 23 20 18 18 17 16 15 13 12 11 11 12 11 11 12 12 11 11 11 10 10 10 9 8 8 7 6 5 5 6 6 6 7 7 7 7 8 8 9 10 11 11 12 13 13 13 13 12 12 13 14 15 14 15 16 18 19 18 18 19 19 21 22 23
6 4 4 4 3 4 4 4 5 2 5 1 4 6 4 1 3 8 22 18 6 9 15 16 21 26 26 27 29 29 29 27 25 23 21 20 19 18 17 16 15 14 13 12 12 10 9 9 10 10 10 11 10 9 9 8 8 7 7 7 6 6 6 6 6 6 7 6 7 8 9 10 11 11 11 12 13 13 13 13 12 12 13 14 15 15 15 16 18 19 20 19 19 19 19 21 22
4 4 4 3 3 4 5 4 4 2 4 3 4 10 7 3 3 8 20 20 9 11 16 16 21 25 27 28 28 28 28 27 26 24 22 21 20 19 18 18 17 16 15 14 12 11 10 8 8 8 9 10 10 9 8 8 8 7 7 7 7 7 6 6 6 7 7 7 8 9 9 10 11 11 11 11 12 13 13 13 13 12 13 14 15 16 16 17 18 20 21 21 20 20 20 20 21
4 4 4 2 4 3 5 5 5 3 4 1 3 10 7 4 5 8 13 15 14 20 23 23 27 27 26 26 25 26 29 30 29 27 23 21 21 20 19 18 18 16 15 14 12 10 9 9 9 8 8 9 10 10 9 8 8 7 7 8 8 8 7 8 7 7 8 8 9 8 8 9 10 11 11 12 12 12 13 13 13 13 13 14 15 16 17 18 19 20 21 22 21 21 21 21 22
4 4 5 3 4 3 1 4 5 5 3 5 7 9 6 4 6 5 8 12 13 16 22 25 27 27 24 24 26 29 32 32 31 29 26 24 23 20 19 19 17 15 14 12 10 8 7 7 8 8 9 10 10 10 10 9 9 8 8 8 8 9 9 10 9 9 10 10 8 8 8 9 10 10 11 11 12 12 12 12 12 12 13 14 15 16 17 18 19 19 20 20 21 22 22 23 23
3 5 6 4 4 5 3 2 1 6 4 6 9 7 2 4 8 5 6 10 9 10 17 21 22 25 26 26 28 30 31 31 32 31 29 28 26 22 19 18 16 15 12 9 8 6 4 5 8 8 8 10 10 11 11 11 11 10 10 9 9 10 11 12 12 11 11 11 10 10 10 10 11 11 10 10 11 12 13 13 13 13 13 13 14 16 16 17 18 18 19 19 20 21 23 24 24
3 4 8 7 6 5 2 1 3 6 2 2 5 4 2 2 8 7 5 7 8 6 9 17 22 24 26 28 30 28 28 31 32 31 30 30 27 23 20 19 17 15 11 8 9 8 7 7 8 8 9 10 10 11 12 12 12 12 12 11 11 12 12 13 14 13 13 13 12 12 12 11 11 11 11 11 12 13 14 14 14 14 14 13 15 16 16 16 16 16 17 18 20 21 23 25 26
3 6 7 7 7 6 3 2 2 3 2 5 3 4 1 3 6 8 7 7 10 8 7 15 23 22 22 26 29 28 27 30 31 29 28 28 25 21 20 20 17 12 9 12 13 11 9 8 7 7 9 9 9 10 11 12 12 12 13 13 14 14 13 14 15 15 15 15 14 14 14 13 13 12 12 13 13 13 14 14 15 15 15 15 16 16 16 16 16 15 16 17 19 21 23 25 26
4 4 7 8 7 6 4 3 3 3 3 4 2 5 2 3 5 7 8 8 10 12 9 11 15 16 17 23 27 27 26 29 29 27 27 27 24 21 20 18 16 10 9 14 15 11 10 9 7 6 7 7 8 8 8 9 9 10 12 13 13 13 13 14 15 15 16 16 16 16 16 16 16 15 15 15 15 15 15 15 16 16 16 17 17 17 17 17 16 16 16 17 18 20 22 24 25
4 5 10 8 8 7 6 5 5 3 1 4 2 6 3 2 3 4 5 6 6 8 9 9 11 15 17 22 27 25 24 27 28 27 26 26 25 23 20 17 15 11 8 11 13 10 10 10 9 7 7 8 7 7 7 7 8 9 11 12 12 13 14 14 15 14 15 16 16 16 17 17 16 16 16 16 17 18 18 18 18 18 18 18 18 18 17 17 17 17 17 18 19 20 21 22 24
4 7 7 3 4 4 4 6 3 1 1 5 6 6 3 1 2 3 5 5 4 3 4 8 15 19 18 21 27 25 23 27 28 27 25 25 24 22 20 15 13 13 11 10 10 9 7 7 8 9 9 10 11 11 9 9 10 10 11 12 12 13 14 14 15 16 16 17 17 17 18 17 17 16 16 16 18 19 20 20 19 19 18 18 18 17 17 17 17 17 17 18 20 21 22 22 23
5 7 6 3 1 2 2 2 3 2 4 5 8 7 4 2 3 5 4 5 9 7 4 8 14 19 19 21 26 26 24 26 27 26 23 23 21 18 18 15 13 13 12 10 9 9 7 7 10 10 10 12 13 14 13 13 13 12 12 13 14 15 15 15 17 18 19 18 18 18 18 18 17 16 15 16 18 19 20 20 20 19 18 18 18 18 18 18 19 19 18 19 19 20 21 22 22
6 5 5 2 2 3 3 2 3 3 6 6 7 9 6 4 5 4 3 5 11 11 8 10 13 18 19 20 24 26 25 25 25 24 21 20 19 17 15 13 11 8 7 7 8 8 9 10 12 11 10 11 12 13 12 14 15 16 17 17 17 17 17 18 18 20 21 20 20 19 19 20 20 18 17 19 19 19 19 19 19 19 19 19 19 19 19 20 20 20 20 20 21 21 22 23 23
5 5 6 4 1 0 1 2 1 4 6 5 4 9 6 4 3 2 5 8 10 11 9 11 15 19 19 18 22 25 26 24 22 21 19 17 17 15 12 10 7 3 5 7 8 8 8 9 10 8 8 9 9 9 10 11 13 16 18 19 19 19 20 21 22 22 24 24 23 23 23 23 24 23 21 20 20 19 19 19 18 18 19 19 19 19 20 20 21 20 20 21 22 23 23 24 25
7 5 6 6 4 4 5 3 1 3 3 4 1 5 3 2 1 2 5 10 11 14 15 14 16 19 18 18 21 23 24 23 20 18 17 15 14 13 10 7 4 6 7 7 7 6 6 7 6 5 5 5 5 6 7 8 10 12 15 17 19 20 21 21 22 23 23 24 24 24 23 23 23 22 20 19 20 19 18 19 19 18 17 18 19 19 20 20 19 19 19 19 20 22 23 24 24
6 5 6 5 4 5 4 4 3 3 2 3 2 2 2 1 1 3 5 13 16 19 19 17 17 19 20 20 20 22 22 21 19 17 16 14 13 10 8 6 5 7 9 8 7 6 5 4 3 1 0 2 3 3 4 5 6 7 9 11 13 14 15 16 17 18 19 20 20 20 21 21 20 20 19 20 21 21 20 19 20 19 18 18 18 19 19 19 18 17 17 17 18 19 21 23 23
4 4 6 5 6 5 2 3 6 4 3 1 1 1 1 1 1 2 10 15 16 19 19 18 18 19 22 21 19 21 21 20 19 17 17 15 13 10 9 9 8 9 9 9 8 7 5 4 2 2 4 4 4 3 3 3 1 0 2 3 5 6 7 9 11 13 15 16 18 19 19 19 20 20 20 21 21 22 21 21 21 20 19 19 19 19 19 19 19 18 17 16 16 16 18 20 21
2 5 7 5 4 6 2 2 2 4 4 1 1 1 1 2 0 1 10 13 12 15 16 18 20 20 21 20 19 20 21 21 20 19 19 18 16 15 12 10 9 9 10 10 9 7 5 3 3 4 5 5 5 6 6 6 5 4 3 2 2 3 4 6 8 10 12 13 15 16 16 17 18 19 20 21 22 22 22 22 21 20 20 20 19 18 19 19 19 19 19 17 16 15 16 17 18
5 6 7 3 3 2 1 2 1 3 3 1 1 2 3 3 1 3 10 12 12 12 12 17 20 20 20 20 21 22 22 22 21 20 19 19 19 18 14 12 11 11 10 10 9 8 6 5 5 6 7 7 8 8 7 6 5 3 2 1 2 2 3 5 7 9 11 12 13 15 15 16 17 18 19 20 21 22 22 22 21 21 21 21 19 17 17 19 19 20 20 19 19 19 18 18 17
5 6 8 5 3 3 1 3 2 2 2 1 1 3 4 3 3 7 12 13 14 14 13 13 16 18 19 21 22 23 23 23 22 21 20 20 19 18 16 14 12 11 10 9 9 9 8 8 7 8 9 9 9 7 7 6 4 3 1 1 1 3 4 6 8 10 12 13 13 14 14 15 16 17 18 19 20 21 22 22 22 22 22 22 20 19 18 19 19 20 20 20 21 22 22 22 20
3 6 7 4 4 4 3 3 3 4 3 2 3 3 4 3 5 10 14 14 15 16 14 12 13 18 20 22 24 24 23 23 23 23 22 21 20 18 17 15 13 12 11 10 11 10 10 9 9 9 9 9 8 7 7 6 4 3 3 3 4 5 6 8 10 10 10 10 10 9 9 10 11 12 13 15 17 18 19 21 21 21 22 22 21 21 21 21 21 21 21 21 20 21 22 24 24
4 6 5 3 2 2 2 1 2 5 4 3 3 3 4 3 5 10 13 13 13 15 13 11 16 21 23 25 26 24 23 23 24 24 22 21 20 18 16 14 13 12 12 12 12 11 11 11 10 8 8 7 6 6 6 5 4 4 4 5 6 7 9 11 12 10 8 5 4 5 6 7 8 9 9 10 12 13 14 16 18 19 21 22 23 23 23 24 24 23 23 23 24 24 25 26 27
7 6 6 5 4 4 3 2 1 3 4 4 5 3 4 3 3 8 10 9 10 14 14 13 19 23 23 25 26 25 24 25 24 24 22 21 20 19 16 15 14 13 13 13 11 11 12 13 10 8 7 6 5 4 4 5 5 5 6 6 7 9 10 11 12 10 6 4 4 5 6 7 9 9 10 11 11 12 12 13 15 16 18 20 21 21 21 21 22 22 22 23 25 27 28 28 28
Wind_Direction
235 238 247 255 304 324 280 83 39 340 78 169 256 246 252 239 276 281 291 339 316 296 312 359 101 114 108 105 118 93 48 36 170 143 152 150 154 159 159 164 169 168 164 158 157 155 157 161 162 161 159 153 144 139 139 134 129 127 125 122 119 121 124 126 126 126 132 132 130 128 124 123 119 118 116 114 113 112 112 110 109 108 108 107 106 106 106 105 107 109 109 110 108 104 111 114 109
230 236 242 236 297 353 224 92 102 315 59 268 265 210 260 306 309 265 280 308 257 92 95 102 94 86 80 88 89 64 39 40 102 112 118 147 156 161 160 165 172 171 167 161 159 157 158 162 164 163 159 153 147 145 146 140 133 132 131 127 124 124 128 130 129 130 134 136 136 131 127 123 119 117 116 115 114 114 113 111 112 114 114 113 111 109 108 107 109 112 116 117 114 116 121 121 116
230 235 238 235 261 23 154 69 122 137 130 242 264 238 277 317 250 247 339 295 195 119 103 101 82 61 62 66 48 54 63 69 108 114 124 153 156 160 165 169 173 172 168 163 160 159 159 162 165 163 159 153 150 151 151 145 138 138 137 133 129 128 132 134 132 132 135 139 139 134 130 123 120 119 119 119 118 118 117 117 119 118 117 116 115 114 113 112 112 115 123 127 124 130 134 127 118
234 233 242 239 214 72 91 69 145 133 172 228 268 258 241 236 244 229 48 310 165 134 106 95 75 60 70 82 77 73 96 111 118 123 137 160 157 157 166 169 173 170 165 163 162 160 161 163 165 162 158 155 154 156 156 151 144 143 143 139 134 133 136 137 135 135 136 140 141 138 132 125 124 124 125 125 124 123 122 123 123 122 121 120 120 118 119 119 120 124 134 140 140 144 142 129 117
237 237 236 213 169 135 97 93 125 141 205 200 244 256 230 230 244 319 61 305 235 217 278 85 98 77 72 71 78 100 120 129 134 138 146 161 157 153 161 166 170 168 166 165 163 162 162 163 163 162 158 158 158 160 160 156 151 149 148 144 139 138 140 140 138 137 138 141 143 141 135 130 130 131 131 131 129 129 128 129 129 128 126 126 127 128 127 124 127 135 141 147 151 149 139 126 120
232 218 193 158 138 147 120 150 175 210 224 178 217 257 242 237 239 32 7 311 252 229 266 277 120 102 81 66 75 118 134 132 143 149 151 154 150 150 157 163 166 167 168 166 165 164 163 163 162 162 159 160 162 163 165 160 156 153 151 148 144 143 144 143 141 139 140 143 145 144 139 136 136 136 136 136 135 134 133 134 134 133 130 130 134 136 134 131 135 137 140 146 153 149 137 128 124
213 189 175 143 103 86 126 182 206 230 241 189 215 261 254 260 271 358 0 328 259 227 257 140 116 102 84 88 83 108 140 135 141 148 146 143 145 151 155 159 162 165 169 167 166 166 163 162 162 161 161 162 165 167 168 164 160 157 154 152 149 147 147 147 146 144 143 145 147 146 143 141 141 142 142 140 140 139 136 135 133 132 129 128 129 131 132 136 139 138 141 147 151 145 136 132 127
189 177 150 122 62 30 120 204 232 218 249 233 244 266 265 274 283 311 11 251 309 358 144 133 106 91 62 101 84 107 139 139 139 142 138 137 142 148 153 157 161 164 168 168 166 165 161 159 161 162 163 165 169 170 170 166 163 159 156 155 153 151 150 151 152 149 145 146 149 149 148 147 147 147 146 145 144 142 138 134 133 132 128 123 122 125 131 137 137 138 141 146 148 143 138 135 133
176 167 132 110 141 35 303 266 257 233 255 261 268 267 269 273 277 269 209 198 242 178 174 205 68 95 95 90 94 127 139 141 138 135 132 133 138 144 155 164 167 166 166 166 164 162 157 157 160 163 166 169 172 172 172 168 165 161 158 158 157 156 154 155 157 155 150 149 151 151 151 152 153 151 150 150 149 146 142 139 136 135 129 122 122 127 135 137 137 139 142 144 146 144 140 140 143
169 158 146 102 128 181 283 270 248 257 257 251 262 264 271 271 269 253 225 194 195 176 165 159 99 113 112 96 105 132 138 141 137 131 131 129 131 138 152 167 171 166 163 164 161 158 155 155 160 164 170 172 173 173 173 169 165 161 160 161 161 161 158 156 159 161 157 154 153 151 152 156 158 156 157 156 154 151 148 146 141 140 135 128 126 130 138 138 138 142 144 144 146 145 144 146 150
165 140 114 94 103 187 232 259 261 271 267 271 273 268 270 266 267 257 227 196 189 159 132 122 108 113 111 104 120 135 141 141 136 131 130 124 125 132 141 155 163 162 161 160 157 156 155 157 161 167 171 172 173 172 172 170 165 163 163 166 166 166 162 155 158 164 164 160 155 151 152 157 161 162 162 161 159 158 156 155 154 152 143 135 131 131 138 141 140 144 146 145 146 147 148 153 154
167 24 83 103 157 194 212 243 269 280 283 291 272 275 278 266 259 248 200 175 174 151 146 139 128 122 106 104 132 142 146 141 135 130 127 125 128 131 136 148 157 160 158 156 154 155 156 159 163 167 169 171 172 171 173 171 167 166 167 170 168 168 164 156 157 165 169 163 157 154 154 157 164 166 163 163 161 162 162 163 163 157 147 139 135 135 139 142 142 146 150 150 150 152 154 158 158
175 144 99 129 195 178 186 203 275 295 295 268 234 284 293 269 250 238 173 159 162 151 163 147 138 125 107 132 141 149 150 144 137 130 129 130 133 133 135 141 151 159 158 156 154 155 157 160 163 166 168 170 171 172 175 172 169 171 170 171 169 168 165 158 159 167 169 159 157 159 160 162 168 169 163 161 160 163 163 162 162 155 149 143 140 139 140 143 143 148 153 155 154 156 158 160 164
182 164 129 178 220 157 172 209 280 275 279 263 248 318 309 276 265 244 163 154 161 149 155 148 141 119 121 139 145 156 154 149 140 133 133 134 137 135 135 133 141 155 158 156 153 155 158 161 164 167 170 170 171 172 174 173 173 174 171 170 169 169 166 163 165 169 167 157 159 164 168 170 170 170 166 164 163 164 162 158 158 153 151 148 146 144 143 144 144 149 155 158 158 159 161 163 172
192 179 121 137 296 251 207 216 229 203 266 265 310 340 333 317 261 197 158 151 118 134 141 144 142 120 152 158 156 162 156 152 145 138 141 142 144 137 136 132 135 147 155 157 153 158 161 164 168 170 172 170 171 173 174 175 175 175 171 171 171 170 166 167 170 169 169 164 166 168 171 175 173 176 176 173 171 170 162 159 159 155 155 154 152 150 147 147 146 152 158 161 162 163 164 169 180
195 206 78 151 250 230 216 219 195 205 264 269 318 345 352 352 81 109 152 147 122 132 140 149 168 153 163 163 157 160 156 155 150 148 152 152 151 143 139 137 140 145 154 161 159 164 166 168 171 171 172 170 172 174 176 176 175 174 171 172 173 172 168 169 173 173 173 174 177 174 173 178 179 185 193 189 182 179 168 163 164 160 160 158 158 156 152 150 151 156 162 166 168 168 168 175 186
197 193 86 240 217 196 215 215 178 204 268 297 328 348 5 332 56 87 124 131 121 130 132 148 191 153 152 157 155 156 156 157 155 158 161 158 155 149 144 145 150 151 156 165 166 169 170 171 172 171 171 171 176 177 179 178 174 174 172 173 173 173 169 170 177 178 178 181 188 187 179 177 180 188 199 205 201 191 177 170 172 167 165 164 164 162 158 155 156 162 167 171 173 173 173 178 190
195 133 164 229 198 203 203 205 213 226 285 320 326 337 2 319 63 100 110 105 103 107 105 114 131 136 142 149 151 153 156 158 160 167 167 162 158 150 150 155 159 156 158 165 168 171 172 173 173 174 174 174 179 182 183 183 179 176 175 173 171 171 170 173 180 181 183 187 195 196 184 172 174 184 196 211 218 208 190 181 181 178 174 172 172 170 167 162 162 168 172 176 177 178 178 181 194
191 135 179 225 199 222 229 237 275 282 292 322 317 327 350 276 137 117 112 96 101 100 102 113 118 127 136 142 148 153 156 157 165 172 169 163 158 149 152 158 162 159 159 165 169 172 174 175 176 178 177 175 179 184 185 184 178 175 175 172 168 170 172 178 183 185 189 194 199 200 193 183 179 185 193 207 219 220 206 190 188 189 185 183 182 180 179 174 171 174 178 182 183 183 183 184 196
199 194 215 243 217 241 267 266 274 278 286 318 312 323 338 294 192 140 126 113 110 118 128 125 125 133 138 142 148 153 155 160 169 172 168 165 159 150 150 155 162 161 162 167 170 172 173 175 181 182 177 173 177 181 176 168 166 168 167 161 159 164 172 180 183 188 194 200 203 203 203 198 192 190 195 209 220 227 225 203 194 194 194 195 196 194 194 191 186 184 184 188 188 188 187 188 197
197 192 197 232 216 231 271 270 271 278 289 305 306 327 338 315 173 152 135 122 122 156 148 142 141 142 142 145 149 154 157 162 169 168 165 167 158 149 148 153 160 163 165 169 172 174 172 175 185 185 176 172 174 171 161 158 162 160 155 153 153 158 168 176 180 186 193 202 204 207 211 203 194 188 189 207 221 232 243 235 210 202 200 202 208 210 211 210 207 199 193 193 193 193 193 191 198
212 216 206 223 235 242 272 275 275 283 294 297 308 337 333 349 153 157 144 132 169 180 160 149 147 148 149 150 152 156 158 164 169 163 162 166 154 145 146 149 154 162 167 171 174 176 174 178 187 184 176 171 168 165 163 164 162 157 155 156 156 159 166 171 170 178 189 198 203 211 216 207 196 187 180 196 211 226 249 265 247 225 212 208 213 219 223 224 225 218 206 198 196 197 198 196 199
238 267 226 238 244 241 270 275 277 282 289 290 292 308 333 86 144 158 61 48 136 156 153 146 145 148 150 152 154 155 159 165 163 155 159 162 151 150 156 154 153 161 167 171 176 179 178 182 185 183 178 172 168 168 171 167 165 164 160 162 161 164 171 169 157 168 183 191 203 214 218 223 224 223 221 220 223 223 240 259 260 254 238 224 216 220 227 230 234 233 222 207 200 200 202 200 199
219 266 263 262 259 253 270 276 278 278 277 281 279 293 16 114 135 64 56 90 126 140 142 142 142 145 148 151 154 155 160 163 154 151 155 155 152 157 164 161 157 161 164 168 174 176 179 181 181 182 180 174 171 173 175 171 174 174 170 174 171 173 179 172 163 170 189 194 206 214 221 235 246 258 256 245 245 245 256 261 259 259 257 248 234 227 227 229 232 236 236 220 204 202 204 201 196
215 240 261 271 269 266 274 277 277 275 274 281 282 277 98 109 100 69 83 112 125 134 138 140 142 144 148 150 153 156 162 159 153 156 152 155 166 166 169 171 167 166 163 166 172 171 173 178 179 181 179 175 175 177 178 174 181 186 184 185 179 184 187 187 193 199 208 207 213 218 223 235 246 261 263 258 256 256 264 269 266 258 259 259 251 243 232 229 230 231 236 229 211 203 201 194 189
206 221 250 264 269 271 276 275 273 275 275 280 301 118 121 110 94 70 99 121 128 133 136 141 144 144 148 151 153 157 162 157 154 160 154 158 172 174 176 177 174 171 168 170 177 173 167 173 178 178 174 175 180 180 180 176 183 192 193 190 184 190 197 201 208 215 217 210 215 222 228 239 246 253 257 259 259 260 263 268 271 266 261 257 256 253 242 233 229 227 228 227 217 205 198 193 195
236 233 251 259 269 275 273 269 270 274 278 276 181 144 153 120 96 84 117 128 132 134 137 144 145 144 150 155 154 158 163 155 152 159 159 161 166 172 177 177 177 174 174 176 183 183 171 173 178 175 170 173 178 179 181 180 184 193 195 192 188 192 203 211 215 220 217 214 222 229 234 239 243 248 251 256 259 261 262 265 272 273 270 260 254 255 249 242 232 226 222 219 214 208 204 203 211
291 280 273 268 274 278 265 254 258 261 279 272 179 132 159 74 100 138 135 136 137 137 139 143 145 148 154 155 157 159 156 150 154 162 162 159 156 162 170 173 172 167 173 181 188 188 180 180 178 172 171 172 174 178 183 185 187 194 197 195 193 198 206 213 221 227 222 223 232 238 245 246 246 247 250 257 260 261 261 262 266 269 273 268 259 253 250 248 240 231 223 218 215 214 214 216 221
319 305 282 286 319 304 257 225 227 222 260 268 191 105 343 360 119 138 139 141 140 139 139 141 144 148 148 148 153 153 148 151 158 161 158 155 151 155 162 163 163 162 169 181 190 190 186 185 177 172 173 174 176 178 185 189 190 194 195 194 196 202 208 213 221 230 230 235 244 253 264 265 260 253 254 260 264 266 264 264 265 267 272 272 269 259 252 253 249 241 231 224 222 222 223 226 229
329 325 164 284 349 317 262 208 200 203 243 257 192 118 302 336 137 142 144 146 143 140 138 140 143 145 144 144 148 147 149 154 154 153 153 152 152 152 155 155 154 159 167 177 185 186 186 184 179 177 176 178 181 182 185 188 188 186 187 192 199 206 212 215 220 227 236 249 260 269 280 284 279 271 270 272 274 275 271 269 269 270 272 273 274 269 260 256 255 252 242 233 229 228 230 231 235
325 321 358 318 119 267 284 244 176 186 245 220 139 273 265 229 148 148 151 150 145 143 138 140 143 142 142 143 144 148 153 153 148 150 149 148 150 149 153 153 151 159 168 174 179 181 182 181 182 182 180 182 186 187 187 186 185 181 183 192 201 213 219 222 227 235 248 262 267 273 281 284 284 284 285 285 284 284 281 278 276 273 269 267 270 272 268 262 259 258 252 243 236 231 233 235 237
37 143 311 341 163 256 302 288 174 172 234 180 128 246 253 191 166 156 155 154 147 141 138 141 142 141 142 142 144 147 147 145 146 146 145 146 148 149 153 153 150 158 167 172 176 177 177 179 182 184 183 185 189 190 188 185 183 183 189 199 206 218 227 235 245 255 266 273 274 276 281 283 285 287 288 288 288 288 288 286 284 278 269 263 264 268 270 268 266 262 258 255 249 241 240 243 245
6 146 228 260 183 245 307 293 212 181 131 136 131 149 211 202 176 162 158 156 146 138 139 140 140 141 143 143 142 139 138 140 143 143 142 145 149 153 155 153 152 156 162 167 170 172 174 177 180 181 183 187 188 190 189 187 188 191 198 206 214 222 227 238 249 263 277 281 282 282 284 287 289 290 287 286 286 286 286 283 283 283 276 269 264 263 266 269 271 268 264 262 261 256 252 253 256
317 30 191 234 192 183 250 287 271 174 121 168 105 119 212 198 170 163 164 163 147 137 139 139 140 142 142 142 140 138 137 136 135 136 138 143 149 153 154 154 156 155 157 161 164 169 173 176 177 178 182 185 185 186 189 192 195 201 206 210 218 221 225 243 256 268 277 277 281 285 287 291 294 294 291 289 290 288 285 281 282 286 283 279 271 264 262 264 270 272 271 268 268 266 264 264 265
179 165 147 249 219 180 218 249 262 114 109 147 113 96 243 180 168 160 160 169 152 139 139 137 140 142 140 141 138 137 136 133 134 136 135 139 143 146 149 149 150 146 145 153 160 167 173 175 177 180 183 185 186 188 191 197 203 207 209 210 217 226 242 257 264 267 271 275 281 285 288 295 298 296 294 292 292 293 292 290 288 287 284 283 280 272 264 263 266 271 273 274 273 271 270 271 272
166 174 147 165 202 231 233 242 255 138 105 111 132 131 169 168 176 143 135 157 154 134 131 134 140 141 139 137 136 137 135 133 136 138 135 136 137 138 140 139 139 135 131 140 150 160 171 176 179 184 187 190 195 198 199 202 210 215 214 211 212 229 248 258 264 269 275 281 284 289 295 300 298 294 293 291 291 292 292 291 289 288 286 284 283 279 271 265 265 267 271 274 274 271 270 270 271
154 145 148 169 185 260 264 259 288 99 107 8 101 90 31 160 183 121 134 150 157 121 123 133 138 135 134 135 135 136 134 132 136 138 137 136 135 134 134 134 133 129 125 127 132 140 153 167 179 186 191 199 204 210 213 211 213 221 227 227 224 232 247 257 267 271 270 272 279 291 299 301 302 300 296 293 291 291 289 288 288 287 289 288 287 286 281 273 268 266 268 271 274 273 270 269 270
160 150 167 206 201 245 269 272 306 56 95 339 65 81 38 22 107 127 141 147 156 151 142 141 134 128 133 136 135 135 131 132 138 140 139 137 137 136 135 134 132 128 125 123 124 129 139 153 169 179 190 203 209 211 216 219 221 226 235 242 240 239 249 255 260 267 267 271 281 291 298 302 305 309 308 303 297 296 295 296 297 295 293 293 292 290 287 283 277 271 267 267 270 272 272 272 273
187 171 152 219 233 242 284 299 330 41 98 349 63 85 67 52 105 135 144 144 151 153 146 141 136 132 136 139 137 133 128 132 137 139 141 143 142 139 137 136 135 134 132 131 133 138 147 156 162 172 187 200 209 213 219 225 226 230 236 242 244 244 252 256 256 265 270 274 282 288 296 298 300 306 311 310 306 304 304 305 307 305 300 297 296 294 292 288 284 280 274 268 266 269 270 272 275
184 161 155 220 221 160 274 306 351 23 89 131 101 88 90 85 91 108 126 130 133 137 134 132 135 135 136 137 135 131 130 132 134 137 144 145 144 142 141 140 138 139 136 135 142 146 154 165 169 179 195 206 214 218 225 233 234 238 241 241 244 247 252 254 252 257 263 263 267 275 282 283 288 298 305 306 306 304 303 304 306 306 305 303 300 298 296 293 289 287 282 274 269 270 270 271 274
201 168 181 201 182 171 190 242 10 36 49 115 102 71 34 134 135 125 103 109 104 105 113 116 125 131 132 133 132 132 134 134 132 137 143 143 145 145 142 144 145 142 142 140 150 166 183 187 183 196 212 218 224 228 231 235 238 242 245 246 249 254 257 258 256 259 260 259 261 269 274 277 283 291 298 301 301 299 296 296 297 300 305 303 300 298 297 296 294 291 287 279 274 275 275 275 274
225 213 205 182 155 175 167 52 55 60 21 231 119 90 314 203 164 157 134 120 107 93 107 118 125 130 133 133 134 136 135 134 135 139 142 141 144 148 147 150 150 146 155 170 178 187 200 201 196 207 224 229 232 234 235 237 240 244 251 255 258 262 265 268 272 273 271 270 273 277 279 283 289 293 295 296 298 299 297 295 295 298 300 298 295 296 297 298 298 297 293 283 277 276 277 277 275
220 235 200 163 141 156 147 74 64 98 212 246 162 134 203 233 197 169 151 145 132 134 146 131 129 135 136 132 136 138 132 134 138 138 141 141 141 148 150 149 150 148 161 175 178 180 186 197 203 208 223 232 233 233 236 240 244 250 256 260 261 264 267 269 273 276 278 280 282 285 287 290 293 293 293 295 297 298 297 296 297 297 298 296 295 294 295 297 297 297 296 289 280 276 275 275 276
224 218 141 144 156 168 176 178 207 210 242 269 167 126 137 209 202 172 148 148 147 151 151 128 126 134 133 131 136 138 133 137 141 136 140 146 147 155 158 152 150 152 160 161 163 173 178 183 201 220 230 234 233 233 239 242 245 253 258 258 260 262 264 265 267 272 278 282 284 286 288 291 291 291 293 295 294 294 294 295 296 297 297 296 295 295 297 299 298 297 297 296 290 282 277 276 277
227 156 129 156 177 178 185 191 221 225 243 272 212 123 131 219 204 157 147 158 158 152 142 127 133 139 134 133 135 136 133 137 143 138 136 145 149 153 158 156 152 158 176 159 150 167 172 166 187 222 246 251 249 244 244 249 249 254 261 260 258 259 262 264 267 272 276 280 284 286 287 290 292 293 295 296 294 294 295 296 297 297 296 295 294 294 296 298 297 295 294 294 293 289 285 282 279
201 132 109 142 175 167 178 185 207 197 209 236 199 144 140 219 233 178 172 178 169 151 136 135 141 142 139 135 133 133 129 130 139 139 133 139 144 145 150 158 160 165 185 179 162 179 177 166 196 221 242 254 261 258 253 253 250 254 261 257 252 254 259 263 265 268 272 277 282 285 288 291 293 294 295 295 295 295 296 297 297 295 295 296 297 296 295 294 292 291 290 289 289 289 288 287 285
146 119 87 68 175 54 76 146 108 120 257 237 186 170 143 162 228 199 185 179 161 156 154 147 141 137 137 134 131 131 129 126 133 137 132 134 140 144 148 157 163 161 172 180 180 198 212 233 240 241 246 254 262 263 261 256 248 249 254 251 248 249 253 261 265 269 273 278 282 285 287 288 290 292 294 294 294 295 298 300 299 296 294 293 294 294 294 292 290 290 292 293 291 289 288 287 285
124 115 112 108 299 11 32 360 70 164 247 258 189 168 150 188 224 195 179 170 157 155 156 152 141 135 134 131 130 133 133 130 132 136 134 132 137 145 148 150 154 157 177 189 189 202 220 241 251 252 252 254 257 259 261 259 251 248 249 249 249 250 251 255 261 267 271 274 278 282 284 285 285 283 283 285 286 290 295 298 300 299 296 294 293 293 294 293 293 294 295 295 294 292 289 286 283
132 118 129 145 235 311 210 231 181 207 242 281 193 159 158 221 247 167 164 162 152 144 140 142 138 134 132 129 132 134 136 135 134 136 138 138 140 145 147 144 148 194 232 222 213 216 226 241 252 257 253 251 253 252 255 260 257 254 254 252 250 252 254 256 259 264 267 269 272 276 281 284 285 285 285 286 287 289 293 294 297 299 298 296 294 294 293 294 295 295 294 293 294 293 291 288 285
164 157 149 159 165 168 210 221 223 235 240 315 293 161 183 211 8 343 154 144 130 119 120 130 133 132 131 131 134 134 136 139 140 142 146 147 144 146 151 154 185 238 236 217 205 210 222 231 238 245 247 255 270 269 264 263 260 259 260 258 256 257 260 263 265 266 267 269 270 274 278 281 284 288 289 288 288 289 292 295 296 296 297 295 293 292 291 292 294 295 295 294 295 295 294 293 290
174 158 133 159 177 163 196 200 182 212 217 324 335 173 220 153 26 337 117 122 118 118 124 130 130 130 130 130 133 133 134 139 142 145 146 144 141 142 151 165 187 206 203 189 178 180 188 183 175 181 260 353 341 315 300 287 271 262 257 256 257 259 261 264 268 270 271 272 272 272 272 274 276 278 280 283 284 285 286 290 292 292 293 293 293 291 289 288 290 294 298 297 296 296 296 295 292
185 137 129 191 195 143 119 178 172 164 145 351 347 127 355 64 18 32 110 114 115 120 126 129 128 130 129 129 131 132 134 137 138 137 134 132 132 133 141 152 160 164 163 161 159 157 152 134 104 62 48 34 23 20 24 36 41 155 204 226 240 249 256 259 262 265 268 271 273 274 274 275 274 271 271 273 277 282 284 285 290 295 295 292 292 293 293 290 289 291 294 296 295 296 298 297 294
161 155 178 202 161 126 121 182 135 106 129 161 320 111 85 106 358 97 117 115 119 127 131 133 132 132 131 132 134 134 134 134 132 129 128 128 129 131 137 139 138 137 136 139 141 137 127 110 86 70 68 66 67 67 77 90 97 109 133 169 204 222 235 246 254 259 265 270 275 279 281 281 280 277 273 271 273 277 280 283 288 293 293 291 291 295 298 297 293 292 294 296 296 293 293 294 294
145 185 187 129 92 113 140 156 51 65 128 227 307 166 171 169 199 161 135 129 136 139 137 138 137 137 137 136 137 137 135 132 129 128 129 131 132 135 135 130 126 127 129 132 135 129 121 116 106 99 97 93 86 84 88 93 97 107 129 184 218 236 244 254 262 267 271 275 279 282 284 284 284 284 281 278 276 276 277 280 282 284 286 289 289 292 296 297 298 297 296 297 296 294 291 290 289
162 178 168 131 158 211 152 160 185 130 135 239 218 189 207 209 190 167 155 151 152 148 144 143 140 139 139 136 138 139 138 136 133 133 135 135 137 137 135 132 128 129 131 131 129 126 122 116 111 110 110 102 94 86 76 69 67 65 39 324 283 270 266 268 270 273 278 283 285 285 287 288 287 285 283 280 278 277 276 277 277 278 280 283 285 288 289 290 293 296 296 295 293 292 291 290 288
112 140 163 159 175 184 164 170 164 141 152 184 163 181 221 211 183 179 171 163 158 151 150 148 138 137 139 139 140 141 142 142 138 136 136 135 136 137 136 136 135 133 132 131 133 135 131 123 120 120 115 104 93 75 58 49 41 19 338 315 304 294 289 285 282 286 293 295 294 294 299 305 304 299 294 290 287 285 281 279 279 279 280 282 284 287 287 285 284 286 289 291 291 290 290 290 290
135 150 178 177 144 136 144 161 116 124 147 160 153 204 237 199 180 185 175 163 158 152 148 141 135 139 143 142 142 143 143 142 138 136 136 137 138 138 137 139 139 137 137 140 145 147 142 137 134 128 115 102 88 64 45 30 14 348 320 310 306 303 304 303 304 311 316 311 315 329 331 332 333 326 319 315 310 306 299 294 291 290 291 292 291 291 291 290 288 285 282 282 285 286 288 289 290
164 169 188 178 147 119 135 216 237 103 128 158 159 197 256 264 195 175 165 156 151 144 137 132 135 141 143 143 144 145 142 139 137 136 138 140 139 137 139 142 142 142 145 147 144 140 144 147 145 135 121 107 87 56 31 9 353 335 321 315 311 310 312 315 318 321 323 324 337 346 344 341 341 337 333 332 328 325 321 315 310 306 305 305 306 307 307 306 305 301 295 288 285 283 284 284 286